Location: Kellogg
(38.0159°N, 90.0546°W)
Time: 01:11:36
(UTC+00:00)

Transit 2A - Pass Details

Date: 13 September 2024
Orbit: 590 x 960 km, 66.7° (Epoch: 09 October)

Event Time Altitude Azimuth Distance (km) Brightness Sun altitude
Rises 02:20:29 0° 249° (WSW) 3,425 10.0 -25.1°
Reaches altitude 10° 02:23:29 10° 265° (W) 2,550 9.4 -25.6°
Maximum altitude 02:28:00 22° 314° (NW) 1,913 8.7 -26.4°
Drops below altitude 10° 02:32:44 10° 3° (N) 2,678 9.1 -27.2°
Sets 02:36:00 0° 19° (NNE) 3,645 9.6 -27.8°
